SCP
0 0 0 0 0 0 0 0 0 0 0 0 0 0 0 0 0 0 0 0 0 0 0 0 -0 0 0 0 0 0 0 0 0 0 0 0 0 0 0 0 0 0 0 0 1
0 0 0 0 0 0 0 0 0 0 0 0 0 0 0 -0 -0 0 0 0 0 -0 -0 0 0 0 0 0 0 0 0 0 0 0 0 0 0 0 0 0 0 0 0 0 0
-0 0 0 0 0 -0 -0 -0 -0 -0 -0 0 0 0 -0 -0 -0 0 0 0 -0 -0 -0 -0 -0 -0 0 0 0 0 0 0 0 0 0 0 0 0 0 0 0 0 0 0 0
-0 0 -0 -0 -0 -0 -0 0 -0 -0 0 0 0 -0 -0 -0 0 0 0 0 0 -0 -0 -0 0 -0 -0 -0 0 0 0 0 0 0 0 0 0 0 0 0 0 0 0 0 0
0 0 0 0 -0 -0 -0 0 0 -0 0 0 0 -0 -0 0 0 0 0 0 -0 -0 -0 -0 0 0 0 0 0 0 0 0 0 0 0 0 0 0 0 0 0 0 0 0 0
0 0 0 0 -0 -0 0 0 0 0 0 0 0 -0 0 0 0 0 0 0 0 0 0 -0 0 0 0 0 0 0 0 0 0 0 0 0 0 0 0 0 0 0 0 0 0
0 0 0 0 -0 -0 0 0 0 0 0 0 0 0 0 0 0 0 0 0 0 -0 -0 0 0 0 0 0 0 0 0 0 0 0 0 0 0 0 0 0 0 0 0 0 0
0 0 0 0 -0 0 0 0 0 0 0 0 0 0 0 0 0 0 0 0 0 0 0 -0 0 0 0 0 0 0 0 0 0 0 -0 -0 0 0 0 0 0 0 0 0 0
0 0 0 0 -0 0 0 0 0 0 0 0 0 0 0 0 0 0 0 -0 0 0 0 0 0 0 0 0 0 0 0 0 0 0 0 0 0 0 0 0 0 0 0 0 0
0 0 0 -0 -0 0 0 0 0 0 0 0 0 0 0 0 0 0 0 0 -0 -0 0 0 0 0 0 0 -0 -0 -0 0 0 -0 0 0 -0 0 0 0 0 0 0 0 0
0 0 0 -0 0 0 0 0 0 0 0 0 0 -0 0 0 0 0 0 0 0 0 0 0 0 0 0 -0 0 -0 -0 -0 -0 0 0 0 0 0 0 0 0 0 0 0 0
0 0 -0 -0 0 0 0 0 0 0 0 -0 -0 0 0 0 0 0 0 0 -0 -0 -0 0 0 0 0 0 -0 -0 -0 -0 -0 -0 -0 -0 0 0 0 0 0 0 0 0 0
0 0 -0 -0 -0 0 0 0 0 0 0 0 0 0 0 0 0 0 0 -0 -0 -0 -0 0 0 0 0 0 0 0 -0 -0 -0 -0 -0 -0 0 0 0 0 0 0 0 0 0
0 0 -0 -0 0 0 0 0 0 0 0 0 0 0 0 0 0 0 0 -0 -0 0 -0 0 -0 0 0 0 0 0 0 -0 0 -0 -0 -0 -0 0 0 0 0 0 0 0 0
0 -0 -0 0 0 0 0 0 0 0 -0 0 0 0 0 0 0 0 0 0 -0 0 0 -0 -0 -0 0 0 -0 0 0 0 -0 0 0 -0 0 -0 0 0 -0 0 0 0 0
0 -0 -0 0 0 0 0 0 0 -0 0 0 0 0 0 0 0 -0 0 0 0 0 0 0 0 0 0 0 -0 0 0 0 0 0 0 0 0 -0 0 0 0 0 0 0 0
0 -0 0 0 0 0 0 -0 -0 0 0 0 0 0 0 0 -0 0 0 -0 0 0 0 0 0 0 0 0 0 0 0 0 0 0 0 0 0 0 0 -0 0 0 0 0 0
0 -0 0 0 0 0 0 -0 0 0 0 0 0 0 0 0 0 -0 0 0 0 0 0 0 0 0 0 0 0 0 0 0 0 0 0 -0 0 0 -0 0 0 0 0 0 0
0 0 0 0 0 0 -0 0 0 0 0 0 0 0 0 0 0 0 -0 0 0 0 0 0 0 0 0 0 0 0 0 0 0 0 0 0 0 -0 0 0 0 0 0 0 0
0 0 0 0 0 0 0 0 0 0 0 0 0 0 0 0 0 0 -0 0 0 0 0 0 0 0 0 0 0 0 0 0 0 0 0 0 0 0 0 0 0 0 0 0 0
0 0 0 0 0 0 0 0 0 0 0 0 0 0 0 0 0 0 0 0 0 0 0 0 0 0 0 0 -0 0 0 0 0 0 0 0 0 0 0 0 0 0 0 0 0
0 0 0 0 -0 0 0 0 0 0 0 0 0 0 0 0 0 0 0 0 0 0 0 0 0 0 -0 -0 -0 0 -0 0 0 0 -0 0 -0 0 0 0 0 0 0 0 0
0 0 0 0 0 0 0 0 0 0 0 0 0 0 0 0 0 0 0 0 -0 0 0 0 0 0 0 0 0 0 -0 -0 -0 -0 -0 -0 -0 -0 0 0 0 0 0 0 0
0 0 0 0 0 0 0 0 0 0 0 0 0 0 0 0 0 0 -0 0 0 0 0 0 0 0 -0 -0 -0 0 0 -0 0 0 0 -0 -0 -0 0 0 0 0 0 0 2
0 0 0 0 0 0 0 0 0 0 0 0 0 0 0 0 -0 0 0 -0 0 0 0 0 0 -0 -0 -0 -0 -0 -0 -0 -0 0 -0 0 -0 0 0 0 0 0 0 3 5
0 0 0 0 0 0 0 0 0 0 0 0 0 0 0 0 0 -0 -0 0 0 0 0 0 0 -0 -0 -0 -0 0 0 0 -0 -0 -0 0 -0 0 0 0 0 0 1 2 3
0 0 0 0 0 0 0 0 0 0 0 0 0 0 0 0 0 0 0 0 0 0 0 -0 -0 0 0 0 0 0 0 0 -0 -0 -0 0 0 0 0 1 2 1 2 2 1
Wind_Speed_500mb
34 35 36 38 38 41 42 38 31 25 21 19 21 21 25 27 26 27 23 19 15 10 17 12 12 19 29 34 44 41 35 44 60 60 42 48 49 33 30 48 56 54 35 21 9
40 41 41 40 38 35 29 27 24 22 20 19 18 20 21 26 22 7 15 3 9 9 13 14 19 13 25 33 44 38 35 57 53 47 43 54 49 58 25 48 47 56 56 49 18
48 47 43 37 30 26 25 25 25 23 22 23 20 22 22 17 11 3 6 15 13 14 17 21 22 23 32 28 32 44 44 49 58 55 57 57 53 58 37 44 44 43 53 57 36
51 45 40 35 28 25 25 28 28 27 28 23 22 20 15 6 6 4 7 6 8 9 13 17 19 26 30 26 29 36 47 57 56 62 69 43 53 49 51 45 45 28 47 46 49
51 41 40 34 27 25 28 31 30 29 25 20 20 15 3 12 16 3 5 5 9 11 12 15 20 25 29 27 21 30 33 45 48 51 64 59 45 46 60 54 43 53 36 46 25
52 40 39 32 26 26 28 33 31 30 20 21 17 5 5 17 1 4 4 10 11 13 14 14 15 18 25 31 30 35 37 35 35 42 54 51 58 53 72 56 52 55 53 41 40
52 41 33 28 26 27 29 35 33 36 15 25 9 3 11 7 3 8 14 17 16 17 22 18 19 22 24 25 26 29 36 39 42 48 46 55 53 64 79 68 60 54 67 60 53
53 44 29 25 25 27 31 37 33 37 15 34 4 3 17 8 5 11 17 23 27 26 26 25 24 31 35 36 38 37 38 37 39 47 47 43 53 58 77 79 78 70 59 54 62
55 45 30 23 25 26 33 38 27 27 20 23 4 8 21 8 11 14 27 24 22 24 26 27 27 38 36 33 31 33 34 41 44 41 29 33 50 49 64 71 82 81 74 70 62
59 48 34 19 26 25 34 31 36 12 18 15 12 14 15 14 19 26 30 29 29 26 30 31 36 30 32 28 30 38 36 35 29 31 29 36 45 41 50 62 64 74 81 69 67
60 48 30 15 24 22 31 28 21 7 20 25 30 36 30 18 25 33 27 23 23 29 29 39 28 29 44 39 38 42 47 49 45 41 24 36 42 43 35 52 57 66 56 56 60
61 46 25 15 24 21 21 22 21 21 30 18 11 17 24 22 35 43 21 17 28 32 31 34 40 47 44 44 44 45 50 51 51 42 40 47 46 41 38 44 53 52 46 49 51
63 36 19 20 14 20 15 16 23 19 17 2 10 17 13 16 38 37 8 21 33 40 42 40 45 42 37 42 43 42 47 48 51 47 41 42 51 52 42 57 67 70 64 55 58
61 26 18 19 12 20 11 26 26 15 11 8 2 4 19 33 32 29 31 37 33 40 40 37 42 35 40 48 43 50 43 49 34 39 34 37 42 51 52 54 55 69 73 71 68
57 24 17 19 17 22 26 29 13 5 8 15 10 18 32 38 40 22 11 26 39 44 33 50 50 49 42 42 40 35 28 32 38 40 38 58 28 50 52 57 56 59 77 81 76
53 22 18 18 16 26 28 22 4 14 9 18 20 36 34 27 25 40 29 31 39 41 42 53 62 46 52 47 46 26 31 34 35 28 30 53 42 45 40 49 40 46 79 83 83
48 17 19 19 27 31 24 16 13 10 27 20 42 41 35 34 44 27 28 33 21 12 32 33 45 46 45 40 38 32 21 11 15 20 38 31 33 46 34 56 44 38 60 80 85
47 14 17 18 35 24 19 24 18 25 25 36 31 43 22 42 35 43 39 33 29 23 16 22 23 10 18 28 23 23 24 13 17 28 36 42 45 41 47 48 40 43 59 71 87
37 16 10 30 30 19 27 12 16 26 30 30 40 29 29 40 39 44 43 28 11 10 7 14 16 9 30 36 26 4 20 34 31 40 34 34 11 44 34 29 40 36 46 61 88
38 11 9 35 23 14 15 2 14 15 27 28 35 25 48 44 40 45 28 18 21 12 21 5 25 31 37 19 34 24 5 7 8 12 30 21 40 28 38 37 34 32 40 64 84
29 18 15 34 19 22 10 13 25 32 28 18 32 43 38 31 38 37 15 36 14 18 22 11 13 28 30 21 32 10 8 19 23 21 19 30 24 23 31 34 26 34 59 71 77
28 12 24 33 23 28 17 18 17 26 35 31 24 31 32 37 27 16 20 25 14 17 8 13 9 16 43 47 41 32 38 35 20 27 27 32 38 21 32 35 36 30 60 58 77
33 21 14 32 13 16 26 32 12 23 27 28 27 32 37 35 16 21 38 37 52 12 6 4 8 13 22 5 20 7 22 40 34 31 34 24 14 12 26 40 43 44 73 71 71
25 12 23 17 1 20 26 23 28 24 26 22 34 36 29 38 34 26 48 17 36 37 32 15 11 23 26 39 24 9 26 43 33 22 30 33 37 29 41 31 35 52 77 85 55
20 15 10 14 27 33 31 26 31 34 20 39 32 42 47 37 50 33 42 58 46 9 7 5 13 30 39 46 48 49 38 38 28 35 31 32 35 37 25 25 43 63 76 60 57
22 18 25 39 31 28 21 25 32 33 39 34 34 45 47 37 33 56 52 40 10 7 6 6 10 29 47 38 32 22 9 27 26 28 26 31 51 42 28 39 55 57 74 63 64
23 21 22 31 34 27 23 30 41 40 22 42 44 43 46 48 68 78 63 57 12 5 4 7 8 10 15 21 19 6 10 24 25 19 6 16 38 43 23 44 42 71 77 71 68
Wind_Direction_500mb
355 348 339 332 328 327 328 329 332 333 331 329 327 327 321 316 311 328 301 268 270 55 38 322 293 265 247 251 236 237 248 248 248 254 254 261 264 239 225 250 244 239 204 216 129
354 345 337 330 328 333 342 350 354 354 350 347 338 322 319 315 319 312 261 309 337 354 1 311 298 283 254 243 238 232 244 248 261 266 266 268 262 254 226 237 246 238 240 238 215
355 350 347 346 352 359 3 2 360 356 351 344 337 328 327 332 293 84 227 302 303 301 308 294 288 271 274 248 234 244 246 266 276 275 278 278 281 249 236 243 234 237 227 230 206
1 2 5 6 8 10 9 2 354 346 342 341 338 333 336 46 350 188 309 312 317 325 296 284 275 265 259 261 229 250 257 266 277 281 281 288 270 267 265 254 256 242 235 230 215
5 7 4 5 10 12 5 356 351 344 345 346 340 336 322 240 65 298 39 31 346 300 282 288 279 272 265 271 272 266 271 273 269 262 269 270 261 263 269 268 254 261 245 234 218
4 1 1 4 7 5 2 355 350 350 357 348 345 333 346 255 111 223 248 262 286 275 274 283 290 316 294 274 274 277 285 283 277 278 263 255 259 257 257 256 250 254 253 244 235
2 358 356 356 358 359 356 352 343 345 355 353 332 189 273 352 202 278 275 275 274 269 272 266 276 284 294 284 268 277 269 270 257 252 252 260 255 250 253 255 247 237 247 247 244
356 354 344 344 346 349 348 346 342 342 301 347 270 198 279 212 281 301 303 285 270 261 260 264 271 274 271 278 277 266 263 267 263 239 237 231 255 250 248 247 249 248 248 250 235
352 349 335 334 334 337 342 342 338 344 357 326 67 234 277 238 267 296 309 287 290 259 258 260 262 268 270 256 260 244 254 257 268 231 217 245 259 252 253 256 233 239 238 242 239
349 347 336 321 334 327 338 338 330 328 359 334 259 249 249 271 299 298 307 273 273 273 242 233 245 248 241 241 260 277 276 269 254 262 249 242 258 266 252 258 243 231 232 232 234
349 346 339 321 334 335 344 324 332 233 284 297 290 281 285 287 291 299 319 288 258 255 260 259 234 252 260 267 262 273 276 278 280 287 258 262 273 277 270 243 268 227 215 232 231
351 348 349 338 336 341 355 339 347 307 308 289 282 264 276 287 288 311 298 253 241 250 276 270 257 245 252 262 271 269 267 267 273 261 265 264 258 254 257 266 254 251 234 225 226
353 353 3 352 353 357 331 330 334 320 273 299 274 296 306 296 299 314 280 285 279 281 281 274 268 273 260 249 260 268 263 265 272 272 262 276 278 259 246 247 243 249 242 238 233
355 2 4 2 356 339 3 327 323 296 268 69 166 64 304 307 293 319 283 284 286 283 295 286 286 280 274 264 259 256 248 261 295 285 269 260 261 259 250 234 232 232 231 232 233
354 2 6 356 330 349 323 326 316 189 273 11 352 295 296 313 309 295 270 272 278 293 291 274 282 284 269 264 270 291 284 275 258 257 271 260 260 256 250 235 223 222 222 224 223
351 356 9 356 329 330 325 320 321 233 6 332 333 334 322 324 327 310 288 277 285 288 275 270 267 255 253 260 260 252 250 264 273 266 252 248 245 257 247 257 229 227 213 216 217
353 347 357 12 333 325 321 291 266 352 341 349 331 332 305 349 334 329 306 300 273 274 277 296 279 267 229 247 248 239 257 235 237 221 242 249 228 241 244 244 247 230 222 209 211
355 356 345 354 331 319 316 271 287 1 346 333 324 307 312 347 345 331 315 302 288 265 272 287 298 33 19 264 291 271 218 247 265 245 251 242 234 233 244 253 237 250 227 213 207
355 354 358 330 334 320 288 319 353 344 336 325 316 311 327 341 335 345 322 306 354 355 272 312 265 322 302 285 250 355 228 252 258 263 273 269 229 285 262 263 223 238 260 222 200
358 333 313 345 340 310 285 260 328 334 324 319 307 316 322 336 333 342 315 319 343 338 17 309 288 280 288 290 258 200 225 233 202 247 255 252 259 255 242 221 233 225 232 242 204
355 309 344 344 318 313 331 324 324 335 334 326 313 310 322 326 329 321 282 307 3 333 337 277 224 283 289 243 238 178 217 233 267 252 269 275 261 36 340 325 230 217 226 229 197
347 310 345 346 299 357 1 336 321 317 319 312 295 308 319 331 307 291 276 288 8 330 253 252 270 275 276 273 270 226 231 227 245 256 258 260 261 47 291 313 308 222 219 219 195
336 311 330 6 7 352 332 321 278 301 315 309 301 310 320 313 300 247 291 293 318 295 241 202 241 287 296 209 28 276 248 244 239 259 258 260 269 348 306 290 293 298 207 223 200
333 329 345 315 238 346 337 313 322 330 321 305 301 298 299 307 319 287 290 305 291 308 300 247 234 245 274 297 311 237 246 256 231 244 257 258 273 272 269 270 280 283 208 215 159
351 354 349 311 328 327 306 309 310 327 331 313 315 321 322 324 312 308 303 312 318 326 331 243 266 269 265 270 270 270 244 254 233 242 244 261 266 262 274 278 267 260 209 131 138
333 342 322 298 318 303 308 336 327 326 319 314 304 324 318 313 302 316 313 301 290 323 280 230 275 299 288 278 262 225 292 352 312 299 287 265 266 272 281 258 261 250 146 143 130
337 323 301 301 325 317 333 324 315 316 309 309 310 307 317 326 319 302 288 277 238 208 253 272 294 293 277 325 289 122 27 342 294 268 285 244 270 309 300 262 218 150 137 124 124
Wind_Speed_850mb
34 35 36 38 38 41 42 38 31 25 21 19 21 21 25 27 26 27 23 19 15 10 17 12 12 19 29 34 44 41 35 44 60 60 42 48 49 33 30 48 56 54 35 21 9
40 41 41 40 38 35 29 27 24 22 20 19 18 20 21 26 22 7 15 3 9 9 13 14 19 13 25 33 44 38 35 57 53 47 43 54 49 58 25 48 47 56 56 49 18
48 47 43 37 30 26 25 25 25 23 22 23 20 22 22 17 11 3 6 15 13 14 17 21 22 23 32 28 32 44 44 49 58 55 57 57 53 58 37 44 44 43 53 57 36
51 45 40 35 28 25 25 28 28 27 28 23 22 20 15 6 6 4 7 6 8 9 13 17 19 26 30 26 29 36 47 57 56 62 69 43 53 49 51 45 45 28 47 46 49
51 41 40 34 27 25 28 31 30 29 25 20 20 15 3 12 16 3 5 5 9 11 12 15 20 25 29 27 21 30 33 45 48 51 64 59 45 46 60 54 43 53 36 46 25
52 40 39 32 26 26 28 33 31 30 20 21 17 5 5 17 1 4 4 10 11 13 14 14 15 18 25 31 30 35 37 35 35 42 54 51 58 53 72 56 52 55 53 41 40
52 41 33 28 26 27 29 35 33 36 15 25 9 3 11 7 3 8 14 17 16 17 22 18 19 22 24 25 26 29 36 39 42 48 46 55 53 64 79 68 60 54 67 60 53
53 44 29 25 25 27 31 37 33 37 15 34 4 3 17 8 5 11 17 23 27 26 26 25 24 31 35 36 38 37 38 37 39 47 47 43 53 58 77 79 78 70 59 54 62
55 45 30 23 25 26 33 38 27 27 20 23 4 8 21 8 11 14 27 24 22 24 26 27 27 38 36 33 31 33 34 41 44 41 29 33 50 49 64 71 82 81 74 70 62
59 48 34 19 26 25 34 31 36 12 18 15 12 14 15 14 19 26 30 29 29 26 30 31 36 30 32 28 30 38 36 35 29 31 29 36 45 41 50 62 64 74 81 69 67
60 48 30 15 24 22 31 28 21 7 20 25 30 36 30 18 25 33 27 23 23 29 29 39 28 29 44 39 38 42 47 49 45 41 24 36 42 43 35 52 57 66 56 56 60
61 46 25 15 24 21 21 22 21 21 30 18 11 17 24 22 35 43 21 17 28 32 31 34 40 47 44 44 44 45 50 51 51 42 40 47 46 41 38 44 53 52 46 49 51
63 36 19 20 14 20 15 16 23 19 17 2 10 17 13 16 38 37 8 21 33 40 42 40 45 42 37 42 43 42 47 48 51 47 41 42 51 52 42 57 67 70 64 55 58
61 26 18 19 12 20 11 26 26 15 11 8 2 4 19 33 32 29 31 37 33 40 40 37 42 35 40 48 43 50 43 49 34 39 34 37 42 51 52 54 55 69 73 71 68
57 24 17 19 17 22 26 29 13 5 8 15 10 18 32 38 40 22 11 26 39 44 33 50 50 49 42 42 40 35 28 32 38 40 38 58 28 50 52 57 56 59 77 81 76
53 22 18 18 16 26 28 22 4 14 9 18 20 36 34 27 25 40 29 31 39 41 42 53 62 46 52 47 46 26 31 34 35 28 30 53 42 45 40 49 40 46 79 83 83
48 17 19 19 27 31 24 16 13 10 27 20 42 41 35 34 44 27 28 33 21 12 32 33 45 46 45 40 38 32 21 11 15 20 38 31 33 46 34 56 44 38 60 80 85
47 14 17 18 35 24 19 24 18 25 25 36 31 43 22 42 35 43 39 33 29 23 16 22 23 10 18 28 23 23 24 13 17 28 36 42 45 41 47 48 40 43 59 71 87
37 16 10 30 30 19 27 12 16 26 30 30 40 29 29 40 39 44 43 28 11 10 7 14 16 9 30 36 26 4 20 34 31 40 34 34 11 44 34 29 40 36 46 61 88
38 11 9 35 23 14 15 2 14 15 27 28 35 25 48 44 40 45 28 18 21 12 21 5 25 31 37 19 34 24 5 7 8 12 30 21 40 28 38 37 34 32 40 64 84
29 18 15 34 19 22 10 13 25 32 28 18 32 43 38 31 38 37 15 36 14 18 22 11 13 28 30 21 32 10 8 19 23 21 19 30 24 23 31 34 26 34 59 71 77
28 12 24 33 23 28 17 18 17 26 35 31 24 31 32 37 27 16 20 25 14 17 8 13 9 16 43 47 41 32 38 35 20 27 27 32 38 21 32 35 36 30 60 58 77
33 21 14 32 13 16 26 32 12 23 27 28 27 32 37 35 16 21 38 37 52 12 6 4 8 13 22 5 20 7 22 40 34 31 34 24 14 12 26 40 43 44 73 71 71
25 12 23 17 1 20 26 23 28 24 26 22 34 36 29 38 34 26 48 17 36 37 32 15 11 23 26 39 24 9 26 43 33 22 30 33 37 29 41 31 35 52 77 85 55
20 15 10 14 27 33 31 26 31 34 20 39 32 42 47 37 50 33 42 58 46 9 7 5 13 30 39 46 48 49 38 38 28 35 31 32 35 37 25 25 43 63 76 60 57
22 18 25 39 31 28 21 25 32 33 39 34 34 45 47 37 33 56 52 40 10 7 6 6 10 29 47 38 32 22 9 27 26 28 26 31 51 42 28 39 55 57 74 63 64
23 21 22 31 34 27 23 30 41 40 22 42 44 43 46 48 68 78 63 57 12 5 4 7 8 10 15 21 19 6 10 24 25 19 6 16 38 43 23 44 42 71 77 71 68
Wind_Direction_850mb
355 348 339 332 328 327 328 329 332 333 331 329 327 327 321 316 311 328 301 268 270 55 38 322 293 265 247 251 236 237 248 248 248 254 254 261 264 239 225 250 244 239 204 216 129
354 345 337 330 328 333 342 350 354 354 350 347 338 322 319 315 319 312 261 309 337 354 1 311 298 283 254 243 238 232 244 248 261 266 266 268 262 254 226 237 246 238 240 238 215
355 350 347 346 352 359 3 2 360 356 351 344 337 328 327 332 293 84 227 302 303 301 308 294 288 271 274 248 234 244 246 266 276 275 278 278 281 249 236 243 234 237 227 230 206
1 2 5 6 8 10 9 2 354 346 342 341 338 333 336 46 350 188 309 312 317 325 296 284 275 265 259 261 229 250 257 266 277 281 281 288 270 267 265 254 256 242 235 230 215
5 7 4 5 10 12 5 356 351 344 345 346 340 336 322 240 65 298 39 31 346 300 282 288 279 272 265 271 272 266 271 273 269 262 269 270 261 263 269 268 254 261 245 234 218
4 1 1 4 7 5 2 355 350 350 357 348 345 333 346 255 111 223 248 262 286 275 274 283 290 316 294 274 274 277 285 283 277 278 263 255 259 257 257 256 250 254 253 244 235
2 358 356 356 358 359 356 352 343 345 355 353 332 189 273 352 202 278 275 275 274 269 272 266 276 284 294 284 268 277 269 270 257 252 252 260 255 250 253 255 247 237 247 247 244
356 354 344 344 346 349 348 346 342 342 301 347 270 198 279 212 281 301 303 285 270 261 260 264 271 274 271 278 277 266 263 267 263 239 237 231 255 250 248 247 249 248 248 250 235
352 349 335 334 334 337 342 342 338 344 357 326 67 234 277 238 267 296 309 287 290 259 258 260 262 268 270 256 260 244 254 257 268 231 217 245 259 252 253 256 233 239 238 242 239
349 347 336 321 334 327 338 338 330 328 359 334 259 249 249 271 299 298 307 273 273 273 242 233 245 248 241 241 260 277 276 269 254 262 249 242 258 266 252 258 243 231 232 232 234
349 346 339 321 334 335 344 324 332 233 284 297 290 281 285 287 291 299 319 288 258 255 260 259 234 252 260 267 262 273 276 278 280 287 258 262 273 277 270 243 268 227 215 232 231
351 348 349 338 336 341 355 339 347 307 308 289 282 264 276 287 288 311 298 253 241 250 276 270 257 245 252 262 271 269 267 267 273 261 265 264 258 254 257 266 254 251 234 225 226
353 353 3 352 353 357 331 330 334 320 273 299 274 296 306 296 299 314 280 285 279 281 281 274 268 273 260 249 260 268 263 265 272 272 262 276 278 259 246 247 243 249 242 238 233
355 2 4 2 356 339 3 327 323 296 268 69 166 64 304 307 293 319 283 284 286 283 295 286 286 280 274 264 259 256 248 261 295 285 269 260 261 259 250 234 232 232 231 232 233
354 2 6 356 330 349 323 326 316 189 273 11 352 295 296 313 309 295 270 272 278 293 291 274 282 284 269 264 270 291 284 275 258 257 271 260 260 256 250 235 223 222 222 224 223
351 356 9 356 329 330 325 320 321 233 6 332 333 334 322 324 327 310 288 277 285 288 275 270 267 255 253 260 260 252 250 264 273 266 252 248 245 257 247 257 229 227 213 216 217
353 347 357 12 333 325 321 291 266 352 341 349 331 332 305 349 334 329 306 300 273 274 277 296 279 267 229 247 248 239 257 235 237 221 242 249 228 241 244 244 247 230 222 209 211
355 356 345 354 331 319 316 271 287 1 346 333 324 307 312 347 345 331 315 302 288 265 272 287 298 33 19 264 291 271 218 247 265 245 251 242 234 233 244 253 237 250 227 213 207
355 354 358 330 334 320 288 319 353 344 336 325 316 311 327 341 335 345 322 306 354 355 272 312 265 322 302 285 250 355 228 252 258 263 273 269 229 285 262 263 223 238 260 222 200
358 333 313 345 340 310 285 260 328 334 324 319 307 316 322 336 333 342 315 319 343 338 17 309 288 280 288 290 258 200 225 233 202 247 255 252 259 255 242 221 233 225 232 242 204
355 309 344 344 318 313 331 324 324 335 334 326 313 310 322 326 329 321 282 307 3 333 337 277 224 283 289 243 238 178 217 233 267 252 269 275 261 36 340 325 230 217 226 229 197
347 310 345 346 299 357 1 336 321 317 319 312 295 308 319 331 307 291 276 288 8 330 253 252 270 275 276 273 270 226 231 227 245 256 258 260 261 47 291 313 308 222 219 219 195
336 311 330 6 7 352 332 321 278 301 315 309 301 310 320 313 300 247 291 293 318 295 241 202 241 287 296 209 28 276 248 244 239 259 258 260 269 348 306 290 293 298 207 223 200
333 329 345 315 238 346 337 313 322 330 321 305 301 298 299 307 319 287 290 305 291 308 300 247 234 245 274 297 311 237 246 256 231 244 257 258 273 272 269 270 280 283 208 215 159
351 354 349 311 328 327 306 309 310 327 331 313 315 321 322 324 312 308 303 312 318 326 331 243 266 269 265 270 270 270 244 254 233 242 244 261 266 262 274 278 267 260 209 131 138
333 342 322 298 318 303 308 336 327 326 319 314 304 324 318 313 302 316 313 301 290 323 280 230 275 299 288 278 262 225 292 352 312 299 287 265 266 272 281 258 261 250 146 143 130
337 323 301 301 325 317 333 324 315 316 309 309 310 307 317 326 319 302 288 277 238 208 253 272 294 293 277 325 289 122 27 342 294 268 285 244 270 309 300 262 218 150 137 124 124